This demonstration page uses our WeatherBlox Daily Observations layout. Learn more.

Left ArrowRight Arrow

34.16533, -84.80231

Hourly Observations for March 3, 2020

Temp ( °F °C ) Dew Point ( °F °C ) Humidity (%) Winds ( mph kmh ) Pressure ( in mb ) Visibility ( mi km ) Precip ( " mm )
12:01 am 00:01 Cloudy with Thunderstorms 53 11.7 51 10.6 93 93 Calm 29.92 1013 4 6 0.02 0.51
12:19 am 00:19 Cloudy with Nearby Thunderstorms 53 11.7 50 10 89 89 NNE 5 7 29.93 1014 3 5 0.06 1.52
12:23 am 00:23 Cloudy with Nearby Thunderstorms 52 11.1 50 10 93 93 E 5 7 29.94 1014 2 3 0.15 3.81
12:28 am 00:28 Cloudy with Strong Thunderstorms 52 11.1 50 10 93 93 ENE 8 13 29.93 1013 1 2 0.23 5.84
12:36 am 00:36 Cloudy with Thunderstorms 52 11.1 51 10.6 97 97 NNW 5 7 29.95 1014 3 4 0.24 6.10
12:43 am 00:43 Cloudy with Light Rain 52 11.1 51 10.6 97 97 ESE 3 6 29.93 1013 4 6 0.24 6.10
12:49 am 00:49 Cloudy with Light Rain 54 12 52 11 94 94 SE 7 11 29.91 1013 4 6 0.24 6.10
12:50 am 00:50 Cloudy with Light Rain 53 11.7 51 10.6 93 93 SE 7 11 29.89 1012 4 6 0.24 6.10
12:56 am 00:56 Cloudy with Mist and Fog 52 11.1 51 10.6 97 97 Calm 29.92 1013 4 6 0.00 0.00
1:06 am 01:06 Cloudy with Mist and Fog 53 11.7 51 10.6 93 93 VRB 3 6 29.90 1013 4 6 0.00 0.00
1:14 am 01:14 Mostly Cloudy 54 12.2 52 11.1 93 93 SSE 8 13 29.89 1012 7 11 0.00 0.00
1:30 am 01:30 Mostly Cloudy 56 13.3 53 11.7 90 90 SE 8 13 29.90 1013 9 14 0.00 0.00
1:53 am 01:53 Mostly Cloudy 55 12.8 53 11.7 93 93 SE 7 11 29.86 1011 7 11 0.00 0.00
2:53 am 02:53 Mostly Cloudy 55 12.8 53 11.7 93 93 SE 3 6 29.83 1010 7 11 0.00 0.00
3:42 am 03:42 Cloudy with Mist and Fog 55 12.8 53 11.7 93 93 Calm 29.83 1010 4 6 0.00 0.00
3:53 am 03:53 Cloudy with Mist and Fog 55 12.8 53 11.7 93 93 N 3 6 29.81 1010 3 5 0.00 0.00
4:44 am 04:44 Cloudy with Mist and Fog 55 12.8 53 11.7 93 93 Calm 29.84 1011 4 6 0.00 0.00
4:53 am 04:53 Cloudy with Mist and Fog 55 12.8 53 11.7 93 93 Calm 29.81 1010 4 6 0.00 0.00
5:53 am 05:53 Cloudy with Mist and Fog 55 12.8 54 12.2 96 96 Calm 29.81 1010 4 6 0.00 0.00
6:46 am 06:46 Mostly Cloudy 56 13.3 54 12.2 93 93 SSE 3 6 29.81 1009 7 11 0.00 0.00
6:53 am 06:53 Partly Cloudy 56 13.3 54 12.2 93 93 SE 3 6 29.79 1009 7 11 0.00 0.00
7:14 am 07:14 Mostly Cloudy with Mist and Fog 56 13.3 54 12.2 93 93 Calm 29.82 1010 6 10 0.00 0.00
7:53 am 07:53 Cloudy with Light Rain 57 13.9 55 12.8 93 93 Calm 29.80 1009 3 5 0.01 0.25
7:58 am 07:58 Cloudy with Rain 58 14.4 55 12.8 90 90 Calm 29.82 1010 2 3 0.02 0.51
8:12 am 08:12 Cloudy with Light Rain 60 15.6 58 14.4 93 93 S 3 6 29.80 1009 3 5 0.06 1.52
8:53 am 08:53 Cloudy 64 17.8 60 15.6 87 87 VRB 6 9 29.80 1009 10 16 0.07 1.78
9:53 am 09:53 Cloudy with Light Rain 64 17.8 60 15.6 87 87 VRB 3 6 29.80 1009 6 10 0.01 0.25
10:49 am 10:49 Cloudy with Rain 64 18 61 16 88 88 VRB 6 9 29.83 1010 3 4 0.05 1.27
10:53 am 10:53 Cloudy with Heavy Rain 63 17.2 61 16.1 93 93 VRB 6 9 29.81 1009 1 2 0.16 4.06
11:04 am 11:04 Cloudy with Light Rain 64 17.8 62 16.7 93 93 VRB 5 7 29.83 1010 3 5 0.02 0.51
11:26 am 11:26 Cloudy 67 19.4 61 16.1 81 81 VRB 5 7 29.81 1010 10 16 0.02 0.51
11:53 am 11:53 Partly Cloudy 69 20.6 63 17.2 81 81 VRB 6 9 29.80 1009 10 16 0.02 0.51
12:44 pm 12:44 Cloudy 70 21.1 62 16.7 76 76 undefined N/A 29.81 1009 10 16 0.00 0.00
12:53 pm 12:53 Mostly Cloudy 70 21.1 62 16.7 76 76 undefined N/A 29.78 1009 10 16 0.00 0.00
1:13 pm 13:13 Mostly Cloudy 70 21.1 61 16.1 73 73 Calm 29.80 1009 10 16 0.00 0.00
1:53 pm 13:53 Cloudy 68 20 60 15.6 76 76 VRB 3 6 29.79 1009 10 16 0.00 0.00
2:33 pm 14:33 Partly Cloudy 70 21.1 61 16.1 73 73 VRB 5 7 29.80 1009 10 16 0.00 0.00
2:53 pm 14:53 Sunny 71 21.7 60 15.6 68 68 VRB 3 6 29.78 1009 10 16 0.00 0.00
3:53 pm 15:53 Sunny 70 21.1 59 15 68 68 Calm 29.78 1008 10 16 0.00 0.00
4:53 pm 16:53 Mostly Sunny 71 21.7 59 15 66 66 VRB 3 6 29.79 1009 10 16 0.00 0.00
5:53 pm 17:53 Cloudy 68 20 60 15.6 76 76 Calm 29.83 1010 10 16 0.00 0.00
6:53 pm 18:53 Cloudy 66 18.9 59 15 78 78 Calm 29.85 1011 10 16 0.00 0.00
7:53 pm 19:53 Cloudy 64 17.8 58 14.4 81 81 Calm 29.86 1011 10 16 0.00 0.00
8:53 pm 20:53 Mostly Clear 62 16.7 57 13.9 84 84 Calm 29.86 1011 10 16 0.00 0.00
9:53 pm 21:53 Mostly Cloudy 61 16.1 56 13.3 84 84 Calm 29.90 1012 10 16 0.00 0.00
10:53 pm 22:53 Mostly Cloudy 60 15.6 56 13.3 86 86 Calm 29.91 1013 10 16 0.00 0.00
11:53 pm 23:53 Cloudy 59 15 55 12.8 87 87 Calm 29.91 1013 10 16 0.00 0.00

Powered by AerisWeather